This is the latest recevied weather packets stored in our database for station/object K7LDN-13. If no packets are shown the sender has not sent any weather packets the latest 10 day(s).
| Time | Temp. | Humidity | Pressure | Rain* | Wind** | Luminosity | Snow |
|---|---|---|---|---|---|---|---|
| 1777906497 | 16.67° C | 47% | 1012.8 hPa | 0 mm | - | 356 W/m² | - |
| 1777906192 | 16.67° C | 49% | 1013.2 hPa | 0 mm | - | 355 W/m² | - |
| 1777905889 | 16.11° C | 50% | 1013.2 hPa | 0 mm | - | 315 W/m² | - |
| 1777905586 | 15.56° C | 51% | 1013.2 hPa | 0 mm | - | 239 W/m² | - |
| 1777905283 | 15.56° C | 51% | 1013.1 hPa | 0 mm | - | 206 W/m² | - |
| 1777904980 | 16.11° C | 50% | 1013.2 hPa | 0 mm | - | 182 W/m² | - |
| 1777904678 | 16.11° C | 49% | 1013.1 hPa | 0 mm | - | 203 W/m² | - |
| 1777904374 | 16.67° C | 47% | 1013.2 hPa | 0 mm | - | 231 W/m² | - |
| 1777904071 | 16.11° C | 46% | 1013.2 hPa | 0 mm | - | 202 W/m² | - |
| 1777903768 | 16.67° C | 46% | 1013 hPa | 0 mm | - | 170 W/m² | - |
| 1777903464 | 16.11° C | 46% | 1013.1 hPa | 0 mm | - | 226 W/m² | - |
| 1777903161 | 16.67° C | 46% | 1013.2 hPa | 0 mm | - | 193 W/m² | - |
| 1777902857 | 15.56° C | 48% | 1013.1 hPa | 0 mm | - | 205 W/m² | - |
| 1777902555 | 15° C | 48% | 1013 hPa | 0 mm | - | 159 W/m² | - |
| 1777902251 | 15° C | 49% | 1013.1 hPa | 0 mm | - | 112 W/m² | - |
| 1777901949 | 15° C | 50% | 1013.1 hPa | 0 mm | - | 97 W/m² | - |
| 1777901647 | 15° C | 50% | 1013.1 hPa | 0 mm | - | 108 W/m² | - |
| 1777901344 | 14.44° C | 50% | 1013.1 hPa | 0 mm | - | 81 W/m² | - |
| 1777901041 | 14.44° C | 51% | 1013.1 hPa | 0 mm | - | 77 W/m² | - |
| 1777900739 | 13.89° C | 51% | 1013.2 hPa | 0 mm | - | 65 W/m² | - |
| 1777900435 | 13.89° C | 52% | 1013 hPa | 0 mm | - | 56 W/m² | - |
| 1777900132 | 13.89° C | 51% | 1013.2 hPa | 0 mm | - | 47 W/m² | - |
| 1777899829 | 13.89° C | 51% | 1013 hPa | 0 mm | - | 39 W/m² | - |
| 1777899526 | 13.89° C | 51% | 1013.1 hPa | 0 mm | - | 32 W/m² | - |
| 1777899224 | 13.89° C | 53% | 1013.1 hPa | 0 mm | - | 25 W/m² | - |
* Rain latest hour (hover to see other rain measurements)
** Current wind speed in m/s (hover to see current wind gust speed)